When you browse on this site, cookies collect data to enhance your experience and personalize the content and advertising you see.
Visit our Privacy Policy to learn more. By continuing to use the site, you agree to this use of cookies and data.
  • In Österreich
  • Länderverzeichnis
  • Für 7 Tage
  • Wassertemperatur
  • Satellitenkarten
  • Wetterkarte
  • News
  • Widgets
  • user-avatar
    Anmelden

    Stündliche Wetter Coral Gables

    Heute, 26 Juni, Mittwoch

    Zeit Temperatur Niederschläge Wind Luftdruck Luftfeuchtigkeit
    00:00 +30°C° 0 mm 1 m/S 763 mmHg 59%
    01:00 +30°C° 0 mm 1 m/S 763 mmHg 62%
    02:00 +30°C° 0 mm 1 m/S 763 mmHg 62%
    03:00 +30°C° 0 mm 1 m/S 762 mmHg 63%
    04:00 +30°C° 0 mm 1 m/S 762 mmHg 63%
    05:00 +30°C° 0 mm 1 m/S 762 mmHg 63%
    06:00 +30°C° 0 mm 1 m/S 763 mmHg 63%
    07:00 +30°C° 0 mm 1 m/S 763 mmHg 63%
    08:00 +32°C° 0 mm 1 m/S 763 mmHg 59%
    09:00 +33°C° 0 mm 1 m/S 763 mmHg 55%
    10:00 +32°C° 0 mm 0 m/S 763 mmHg 51%
    11:00 +35°C° 0 mm 1 m/S 763 mmHg 48%
    12:00 +36°C° 0 mm 2 m/S 763 mmHg 46%
    13:00 +37°C° 0 mm 3 m/S 763 mmHg 44%
    14:00 +36°C° 0.3 mm 3 m/S 763 mmHg 48%
    15:00 +35°C° 0.3 mm 3 m/S 762 mmHg 52%
    16:00 +34°C° 0.3 mm 4 m/S 762 mmHg 55%
    17:00 +33°C° 2.3 mm 3 m/S 762 mmHg 58%
    18:00 +31°C° 2.3 mm 3 m/S 762 mmHg 62%
    19:00 +30°C° 2.3 mm 2 m/S 762 mmHg 65%
    20:00 +30°C° 0.6 mm 2 m/S 762 mmHg 62%
    21:00 +30°C° 0.6 mm 2 m/S 763 mmHg 59%
    22:00 +30°C° 0.6 mm 2 m/S 763 mmHg 57%
    23:00 +30°C° 0 mm 3 m/S 763 mmHg 60%

    Morgen, 27 Juni, Donnerstag

    Zeit Temperatur Niederschläge Wind Luftdruck Luftfeuchtigkeit
    00:00 +30°C° 0 mm 3 m/S 762 mmHg 64%
    01:00 +30°C° 0 mm 4 m/S 762 mmHg 68%
    02:00 +30°C° 0 mm 3 m/S 762 mmHg 69%
    03:00 +30°C° 0 mm 3 m/S 762 mmHg 71%
    04:00 +30°C° 0 mm 3 m/S 762 mmHg 73%
    05:00 +30°C° 0 mm 3 m/S 762 mmHg 71%
    06:00 +30°C° 0 mm 3 m/S 762 mmHg 70%
    07:00 +30°C° 0 mm 3 m/S 762 mmHg 69%
    08:00 +31°C° 0 mm 3 m/S 762 mmHg 64%
    09:00 +33°C° 0 mm 3 m/S 763 mmHg 58%
    10:00 +34°C° 0 mm 4 m/S 763 mmHg 53%
    11:00 +35°C° 0 mm 4 m/S 763 mmHg 51%
    12:00 +35°C° 0 mm 4 m/S 763 mmHg 50%
    13:00 +35°C° 0 mm 4 m/S 763 mmHg 49%
    14:00 +35°C° 0 mm 5 m/S 762 mmHg 51%
    15:00 +35°C° 0 mm 5 m/S 762 mmHg 52%
    16:00 +35°C° 0 mm 5 m/S 761 mmHg 54%
    17:00 +34°C° 0 mm 5 m/S 762 mmHg 57%
    18:00 +33°C° 0 mm 5 m/S 762 mmHg 59%
    19:00 +33°C° 0 mm 6 m/S 762 mmHg 61%
    20:00 +32°C° 0 mm 5 m/S 762 mmHg 63%
    21:00 +32°C° 0 mm 5 m/S 762 mmHg 65%
    22:00 +32°C° 0 mm 4 m/S 763 mmHg 67%
    23:00 +32°C° 0.2 mm 4 m/S 762 mmHg 69%

    übermorgen, 28 Juni, Freitag

    Zeit Temperatur Niederschläge Wind Luftdruck Luftfeuchtigkeit
    00:00 +30°C° 0.2 mm 4 m/S 762 mmHg 70%
    01:00 +30°C° 0.2 mm 4 m/S 762 mmHg 72%
    02:00 +30°C° 0.1 mm 4 m/S 762 mmHg 71%
    03:00 +30°C° 0.1 mm 4 m/S 761 mmHg 71%
    04:00 +30°C° 0.1 mm 3 m/S 761 mmHg 71%
    05:00 +30°C° 0.7 mm 3 m/S 761 mmHg 70%
    06:00 +30°C° 0.7 mm 3 m/S 762 mmHg 69%
    07:00 +30°C° 0.7 mm 3 m/S 762 mmHg 69%
    08:00 +32°C° 0.1 mm 4 m/S 762 mmHg 66%
    09:00 +33°C° 0.1 mm 4 m/S 763 mmHg 62%
    10:00 +34°C° 0.1 mm 4 m/S 763 mmHg 59%
    11:00 +34°C° 0 mm 4 m/S 763 mmHg 57%
    12:00 +34°C° 0 mm 4 m/S 763 mmHg 56%
    13:00 +35°C° 0 mm 5 m/S 763 mmHg 54%
    14:00 +35°C° 0 mm 5 m/S 762 mmHg 56%
    15:00 +34°C° 0 mm 5 m/S 762 mmHg 58%
    16:00 +34°C° 0 mm 5 m/S 761 mmHg 61%
    17:00 +33°C° 0.1 mm 5 m/S 762 mmHg 62%
    18:00 +33°C° 0.1 mm 6 m/S 762 mmHg 63%
    19:00 +33°C° 0.1 mm 6 m/S 762 mmHg 64%
    20:00 +33°C° 0.2 mm 6 m/S 762 mmHg 65%
    21:00 +32°C° 0.2 mm 6 m/S 763 mmHg 65%
    22:00 +32°C° 0.2 mm 6 m/S 763 mmHg 66%
    23:00 +32°C° 0.7 mm 5 m/S 762 mmHg 67%

    29 Juni, Samstag

    Zeit Temperatur Niederschläge Wind Luftdruck Luftfeuchtigkeit
    00:00 +32°C° 0.7 mm 5 m/S 762 mmHg 68%
    01:00 +32°C° 0.7 mm 5 m/S 762 mmHg 69%
    02:00 +32°C° 0 mm 4 m/S 762 mmHg 68%
    03:00 +32°C° 0 mm 4 m/S 762 mmHg 67%
    04:00 +30°C° 0 mm 3 m/S 761 mmHg 66%
    05:00 +30°C° 0.3 mm 4 m/S 762 mmHg 67%
    06:00 +30°C° 0.3 mm 4 m/S 762 mmHg 67%
    07:00 +30°C° 0.3 mm 4 m/S 763 mmHg 68%
    08:00 +30°C° 0.4 mm 4 m/S 763 mmHg 66%
    09:00 +30°C° 0.4 mm 4 m/S 763 mmHg 65%
    10:00 +30°C° 0.4 mm 4 m/S 764 mmHg 63%
    11:00 +32°C° 0 mm 6 m/S 764 mmHg 61%
    12:00 +32°C° 0 mm 6 m/S 764 mmHg 61%
    13:00 +32°C° 0 mm 6 m/S 763 mmHg 60%
    14:00 +33°C° 0 mm 6 m/S 763 mmHg 58%
    15:00 +33°C° 0 mm 5 m/S 763 mmHg 57%
    16:00 +33°C° 0 mm 5 m/S 763 mmHg 56%
    17:00 +32°C° 0 mm 5 m/S 763 mmHg 58%
    18:00 +32°C° 0 mm 5 m/S 763 mmHg 61%
    19:00 +32°C° 0 mm 5 m/S 763 mmHg 63%
    20:00 +30°C° 0 mm 5 m/S 763 mmHg 64%
    21:00 +30°C° 0 mm 5 m/S 763 mmHg 66%
    22:00 +30°C° 0 mm 5 m/S 763 mmHg 68%
    23:00 +30°C° 0.7 mm 5 m/S 763 mmHg 69%

    30 Juni, Sonntag

    Zeit Temperatur Niederschläge Wind Luftdruck Luftfeuchtigkeit
    00:00 +30°C° 0.7 mm 5 m/S 763 mmHg 70%
    01:00 +30°C° 0.7 mm 5 m/S 762 mmHg 71%
    02:00 +30°C° 0.6 mm 5 m/S 762 mmHg 72%
    03:00 +30°C° 0.6 mm 4 m/S 762 mmHg 73%
    04:00 +30°C° 0.6 mm 4 m/S 762 mmHg 74%
    05:00 +30°C° 2 mm 4 m/S 762 mmHg 74%
    06:00 +30°C° 2 mm 4 m/S 762 mmHg 74%
    07:00 +29°C° 2 mm 4 m/S 763 mmHg 74%
    08:00 +30°C° 0.4 mm 4 m/S 763 mmHg 71%
    09:00 +30°C° 0.4 mm 3 m/S 763 mmHg 67%
    10:00 +31°C° 0.4 mm 3 m/S 763 mmHg 63%
    11:00 +33°C° 0.2 mm 3 m/S 763 mmHg 60%
    12:00 +33°C° 0.2 mm 3 m/S 763 mmHg 57%
    13:00 +34°C° 0.2 mm 3 m/S 763 mmHg 53%
    14:00 +34°C° 0 mm 3 m/S 762 mmHg 53%
    15:00 +34°C° 0 mm 3 m/S 762 mmHg 52%
    16:00 +34°C° 0 mm 3 m/S 762 mmHg 51%
    17:00 +34°C° 0 mm 3 m/S 762 mmHg 54%
    18:00 +33°C° 0 mm 3 m/S 762 mmHg 58%
    19:00 +33°C° 0 mm 3 m/S 762 mmHg 62%
    20:00 +31°C° 0.2 mm 3 m/S 762 mmHg 64%
    21:00 +31°C° 0.2 mm 3 m/S 762 mmHg 66%
    22:00 +31°C° 0.2 mm 3 m/S 763 mmHg 68%
    23:00 +30°C° 0.4 mm 3 m/S 762 mmHg 69%

    1 Juli, Montag

    Zeit Temperatur Niederschläge Wind Luftdruck Luftfeuchtigkeit
    00:00 +30°C° 0.4 mm 2 m/S 762 mmHg 71%
    01:00 +30°C° 0.4 mm 2 m/S 762 mmHg 72%
    02:00 +30°C° 0.1 mm 2 m/S 762 mmHg 71%
    03:00 +30°C° 0.1 mm 1 m/S 762 mmHg 70%
    04:00 +30°C° 0.1 mm 1 m/S 762 mmHg 70%
    05:00 +30°C° 0.1 mm 1 m/S 762 mmHg 68%
    06:00 +28°C° 0.1 mm 0 m/S 762 mmHg 67%
    07:00 +28°C° 0.1 mm 0 m/S 762 mmHg 65%
    08:00 +29°C° 0 mm 0 m/S 763 mmHg 61%
    09:00 +30°C° 0 mm 0 m/S 763 mmHg 57%
    10:00 +33°C° 0 mm 1 m/S 763 mmHg 53%
    11:00 +33°C° 0.1 mm 1 m/S 763 mmHg 52%
    12:00 +35°C° 0.1 mm 2 m/S 763 mmHg 51%
    13:00 +35°C° 0.1 mm 2 m/S 763 mmHg 49%
    14:00 +35°C° 0.2 mm 3 m/S 762 mmHg 50%
    15:00 +35°C° 0.2 mm 3 m/S 762 mmHg 52%
    16:00 +35°C° 0.2 mm 4 m/S 761 mmHg 53%
    17:00 +34°C° 0.4 mm 3 m/S 761 mmHg 56%
    18:00 +32°C° 0.4 mm 2 m/S 761 mmHg 59%
    19:00 +32°C° 0.4 mm 2 m/S 761 mmHg 62%
    20:00 +31°C° 0.5 mm 2 m/S 762 mmHg 63%
    21:00 +31°C° 0.5 mm 2 m/S 762 mmHg 64%
    22:00 +31°C° 0.5 mm 2 m/S 762 mmHg 65%
    23:00 +31°C° 0.1 mm 2 m/S 762 mmHg 66%
    Mehr zeigen